| time (UTC) | temp F | wind direction | speed MPH | gust MPH | rain 1hr in | rain 24hr in | rain mn in | humidity % | barometer mb |
| 20260508004003 | 67 | 167 | 0.0 | 0.0 | 0.00 | 0.00 | 0.00 | 64 | 1013.2 |
| 20260508003005 | 67 | 166 | 0.0 | 0.0 | 0.00 | 0.00 | 0.00 | 63 | 1013.2 |
| 20260508002004 | 67 | 166 | 0.0 | 0.0 | 0.00 | 0.00 | 0.00 | 62 | 1013.2 |
| 20260508001003 | 68 | 168 | 0.0 | 2.0 | 0.00 | 0.00 | 0.00 | 61 | 1013.2 |
| 20260507235003 | 68 | 162 | 0.0 | 2.0 | 0.00 | 0.00 | 0.00 | 61 | 1013.2 |
| 20260507234004 | 68 | 160 | 1.0 | 5.0 | 0.00 | 0.00 | 0.00 | 60 | 1013.2 |
| 20260507233004 | 68 | 127 | 1.0 | 5.0 | 0.00 | 0.00 | 0.00 | 60 | 1013.2 |
| 20260507232003 | 68 | 150 | 1.0 | 7.0 | 0.00 | 0.00 | 0.00 | 59 | 1013.2 |
| 20260507231003 | 69 | 181 | 1.0 | 3.0 | 0.00 | 0.00 | 0.00 | 59 | 1013.2 |
| 20260507230003 | 69 | 195 | 2.0 | 3.0 | 0.00 | 0.00 | 0.00 | 59 | 1013.2 |
| 20260507225003 | 69 | 167 | 2.0 | 8.0 | 0.00 | 0.02 | 0.00 | 59 | 1013.2 |
| 20260507224003 | 69 | 165 | 1.0 | 3.0 | 0.00 | 0.02 | 0.00 | 59 | 1013.2 |
| 20260507223004 | 69 | 168 | 1.0 | 6.0 | 0.00 | 0.02 | 0.00 | 58 | 1013.2 |
| 20260507222004 | 70 | 161 | 2.0 | 5.0 | 0.00 | 0.02 | 0.00 | 56 | 1013.2 |
| 20260507221003 | 71 | 150 | 1.0 | 3.0 | 0.00 | 0.02 | 0.00 | 56 | 1013.2 |
| 20260507220004 | 71 | 191 | 1.0 | 3.0 | 0.00 | 0.02 | 0.00 | 53 | 1013.2 |
| 20260507215003 | 72 | 236 | 2.0 | 3.0 | 0.00 | 0.02 | 0.00 | 50 | 1013.4 |
| 20260507214003 | 72 | 187 | 0.0 | 3.0 | 0.00 | 0.02 | 0.00 | 52 | 1014.2 |
| 20260507213003 | 72 | 307 | 0.0 | 2.0 | 0.00 | 0.02 | 0.00 | 51 | 1014.2 |
| 20260507212004 | 72 | 307 | 0.0 | 2.0 | 0.00 | 0.02 | 0.00 | 49 | 1014.2 |
| 20260507211004 | 72 | 307 | 1.0 | 3.0 | 0.00 | 0.02 | 0.00 | 52 | 1014.2 |
| 20260507210004 | 71 | 340 | 0.0 | 3.0 | 0.00 | 0.02 | 0.00 | 50 | 1014.1 |
| 20260507205003 | 71 | 348 | 2.0 | 5.0 | 0.00 | 0.02 | 0.00 | 49 | 1014.1 |
| 20260507204004 | 71 | 335 | 1.0 | 7.0 | 0.00 | 0.02 | 0.00 | 51 | 1014.0 |
| 20260507203003 | 71 | 31 | 2.0 | 7.0 | 0.00 | 0.02 | 0.00 | 49 | 1014.0 |
| 20260507201003 | 71 | 330 | 6.0 | 12.0 | 0.00 | 0.02 | 0.00 | 51 | 1014.2 |
| 20260507200003 | 71 | 7 | 6.0 | 10.0 | 0.00 | 0.02 | 0.00 | 52 | 1014.4 |
| 20260507195004 | 70 | 17 | 3.0 | 7.0 | 0.00 | 0.02 | 0.00 | 49 | 1014.5 |
| 20260507193003 | 71 | 26 | 6.0 | 10.0 | 0.00 | 0.02 | 0.00 | 49 | 1015.5 |
| 20260507192003 | 71 | 116 | 1.0 | 6.0 | 0.00 | 0.02 | 0.00 | 47 | 1015.5 |
| 20260507191003 | 71 | 31 | 6.0 | 9.0 | 0.00 | 0.02 | 0.00 | 52 | 1015.4 |
| 20260507185003 | 70 | 14 | 7.0 | 12.0 | 0.00 | 0.02 | 0.00 | 52 | 1015.4 |
| 20260507183003 | 70 | 0 | 9.0 | 14.0 | 0.00 | 0.02 | 0.00 | 51 | 1016.9 |
| 20260507182003 | 70 | 42 | 10.0 | 15.0 | 0.00 | 0.02 | 0.00 | 53 | 1016.9 |
| 20260507181003 | 69 | 56 | 4.0 | 15.0 | 0.00 | 0.02 | 0.00 | 55 | 1016.9 |
| 20260507180004 | 69 | 356 | 7.0 | 12.0 | 0.00 | 0.02 | 0.00 | 60 | 1016.9 |
| 20260507175004 | 68 | 358 | 7.0 | 13.0 | 0.00 | 0.02 | 0.00 | 57 | 1016.9 |
| 20260507173003 | 66 | 38 | 7.0 | 13.0 | 0.00 | 0.02 | 0.00 | 60 | 1016.9 |
| 20260507172003 | 66 | 35 | 6.0 | 14.0 | 0.00 | 0.02 | 0.00 | 62 | 1016.9 |
| 20260507171004 | 66 | 352 | 7.0 | 12.0 | 0.00 | 0.02 | 0.00 | 64 | 1016.9 |
| 20260507170003 | 66 | 354 | 7.0 | 13.0 | 0.00 | 0.02 | 0.00 | 62 | 1016.9 |
| 20260507165003 | 65 | 36 | 7.0 | 12.0 | 0.00 | 0.02 | 0.00 | 65 | 1017.4 |
| 20260507164004 | 65 | 108 | 2.0 | 7.0 | 0.00 | 0.02 | 0.00 | 64 | 1017.4 |
| 20260507163003 | 65 | 46 | 5.0 | 7.0 | 0.00 | 0.02 | 0.00 | 68 | 1017.4 |
| 20260507162004 | 64 | 21 | 6.0 | 9.0 | 0.00 | 0.02 | 0.00 | 68 | 1017.4 |
| 20260507160003 | 64 | 347 | 6.0 | 12.0 | 0.00 | 0.02 | 0.00 | 69 | 1017.7 |
| 20260507155004 | 63 | 15 | 7.0 | 12.0 | 0.00 | 0.02 | 0.00 | 69 | 1017.7 |
| 20260507153004 | 63 | 19 | 6.0 | 10.0 | 0.00 | 0.02 | 0.00 | 72 | 1017.7 |
| 20260507152004 | 62 | 12 | 4.0 | 8.0 | 0.00 | 0.02 | 0.00 | 73 | 1017.7 |
| 20260507151004 | 62 | 351 | 6.0 | 8.0 | 0.00 | 0.03 | 0.00 | 74 | 1017.8 |
| 20260507145003 | 60 | 40 | 5.0 | 9.0 | 0.00 | 0.14 | 0.00 | 76 | 1017.9 |
| 20260507144003 | 61 | 65 | 3.0 | 8.0 | 0.00 | 0.14 | 0.00 | 77 | 1018.0 |
| 20260507143003 | 60 | 39 | 5.0 | 9.0 | 0.00 | 0.14 | 0.00 | 79 | 1018.0 |
| 20260507141004 | 58 | 0 | 5.0 | 8.0 | 0.00 | 0.14 | 0.00 | 83 | 1018.0 |
| 20260507140003 | 58 | 0 | 5.0 | 7.0 | 0.00 | 0.14 | 0.00 | 85 | 1018.0 |
| 20260507135004 | 57 | 18 | 6.0 | 8.0 | 0.00 | 0.14 | 0.00 | 87 | 1018.3 |
| 20260507134003 | 56 | 25 | 3.0 | 8.0 | 0.00 | 0.14 | 0.00 | 89 | 1018.3 |
| 20260507133003 | 56 | 342 | 5.0 | 6.0 | 0.00 | 0.14 | 0.00 | 91 | 1018.3 |
| 20260507132004 | 55 | 337 | 2.0 | 3.0 | 0.00 | 0.14 | 0.00 | 92 | 1018.3 |
| 20260507130004 | 54 | 336 | 0.0 | 2.0 | 0.00 | 0.14 | 0.00 | 93 | 1018.3 |
| 20260507125004 | 54 | 336 | 0.0 | 2.0 | 0.00 | 0.14 | 0.00 | 93 | 1018.1 |
| 20260507123003 | 53 | 336 | 0.0 | 1.0 | 0.00 | 0.14 | 0.00 | 93 | 1018.1 |
| 20260507122004 | 52 | 336 | 0.0 | 2.0 | 0.00 | 0.14 | 0.00 | 93 | 1018.1 |
| 20260507121003 | 52 | 336 | 0.0 | 0.0 | 0.00 | 0.14 | 0.00 | 92 | 1018.1 |
| 20260507120004 | 52 | 336 | 0.0 | 0.0 | 0.00 | 0.14 | 0.00 | 92 | 1018.1 |
| 20260507115004 | 52 | 336 | 0.0 | 0.0 | 0.00 | 0.14 | 0.00 | 91 | 1017.3 |
| 20260507114003 | 53 | 336 | 0.0 | 0.0 | 0.00 | 0.14 | 0.00 | 91 | 1017.3 |
| 20260507113004 | 53 | 336 | 0.0 | 2.0 | 0.00 | 0.14 | 0.00 | 91 | 1017.3 |
| 20260507112004 | 53 | 336 | 1.0 | 3.0 | 0.00 | 0.14 | 0.00 | 91 | 1017.3 |
| 20260507111003 | 53 | 336 | 1.0 | 3.0 | 0.00 | 0.14 | 0.00 | 91 | 1017.3 |
| 20260507105003 | 53 | 336 | 2.0 | 3.0 | 0.00 | 0.14 | 0.00 | 91 | 1015.7 |
| 20260507104004 | 53 | 340 | 2.0 | 5.0 | 0.00 | 0.14 | 0.00 | 91 | 1015.7 |
| 20260507103003 | 53 | 342 | 1.0 | 5.0 | 0.00 | 0.14 | 0.00 | 90 | 1015.7 |
| 20260507102003 | 53 | 355 | 1.0 | 2.0 | 0.00 | 0.14 | 0.00 | 90 | 1015.7 |
| 20260507101004 | 53 | 355 | 1.0 | 2.0 | 0.00 | 0.14 | 0.00 | 90 | 1015.7 |
| 20260507100004 | 53 | 355 | 1.0 | 3.0 | 0.00 | 0.14 | 0.00 | 90 | 1015.7 |
| 20260507095003 | 53 | 30 | 0.0 | 2.0 | 0.00 | 0.14 | 0.00 | 90 | 1015.7 |
| 20260507094004 | 53 | 30 | 0.0 | 0.0 | 0.00 | 0.14 | 0.00 | 89 | 1015.7 |
| 20260507093003 | 54 | 30 | 0.0 | 1.0 | 0.00 | 0.14 | 0.00 | 88 | 1015.7 |
| 20260507092003 | 54 | 30 | 0.0 | 1.0 | 0.00 | 0.14 | 0.00 | 88 | 1015.8 |
| 20260507091004 | 55 | 30 | 1.0 | 2.0 | 0.00 | 0.14 | 0.00 | 88 | 1015.7 |
| 20260507090004 | 55 | 30 | 1.0 | 6.0 | 0.00 | 0.14 | 0.00 | 88 | 1015.7 |
| 20260507085003 | 55 | 21 | 2.0 | 7.0 | 0.00 | 0.14 | 0.00 | 87 | 1015.3 |
| 20260507084004 | 55 | 5 | 5.0 | 8.0 | 0.00 | 0.14 | 0.00 | 87 | 1015.3 |
| 20260507083003 | 55 | 7 | 4.0 | 6.0 | 0.00 | 0.14 | 0.00 | 86 | 1015.3 |
| 20260507082004 | 56 | 5 | 5.0 | 7.0 | 0.00 | 0.14 | 0.00 | 84 | 1015.4 |
| 20260507081003 | 56 | 37 | 5.0 | 8.0 | 0.00 | 0.14 | 0.00 | 84 | 1015.4 |
| 20260507080004 | 56 | 29 | 4.0 | 8.0 | 0.00 | 0.14 | 0.00 | 84 | 1015.4 |
| 20260507075003 | 56 | 36 | 5.0 | 8.0 | 0.00 | 0.14 | 0.00 | 85 | 1015.4 |
| 20260507074003 | 56 | 30 | 4.0 | 8.0 | 0.00 | 0.14 | 0.00 | 84 | 1014.9 |
| 20260507073004 | 57 | 27 | 5.0 | 8.0 | 0.00 | 0.14 | 0.00 | 84 | 1014.9 |
| 20260507072004 | 57 | 40 | 3.0 | 10.0 | 0.00 | 0.14 | 0.00 | 83 | 1014.6 |
| 20260507071003 | 57 | 48 | 9.0 | 12.0 | 0.00 | 0.14 | 0.00 | 83 | 1014.6 |
| 20260507070008 | 57 | 45 | 5.0 | 12.0 | 0.00 | 0.14 | 0.00 | 83 | 1014.8 |
| 20260507065004 | 57 | 35 | 5.0 | 9.0 | 0.00 | 0.14 | 0.00 | 83 | 1014.8 |
| 20260507064003 | 58 | 59 | 5.0 | 10.0 | 0.00 | 0.14 | 0.00 | 82 | 1014.8 |
| 20260507063003 | 58 | 27 | 5.0 | 12.0 | 0.00 | 0.14 | 0.00 | 82 | 1014.8 |
| 20260507062003 | 58 | 51 | 5.0 | 12.0 | 0.00 | 0.14 | 0.00 | 82 | 1014.6 |
| 20260507061003 | 58 | 34 | 5.0 | 9.0 | 0.00 | 0.14 | 0.00 | 82 | 1014.6 |
| 20260507060003 | 59 | 35 | 2.0 | 6.0 | 0.00 | 0.14 | 0.00 | 82 | 1014.6 |
| 20260507055003 | 59 | 42 | 4.0 | 7.0 | 0.00 | 0.14 | 0.00 | 82 | 1014.6 |
| 20260507054003 | 59 | 35 | 3.0 | 8.0 | 0.00 | 0.14 | 0.00 | 82 | 1014.6 |
| 20260507053004 | 59 | 49 | 5.0 | 8.0 | 0.00 | 0.14 | 0.00 | 81 | 1014.5 |
| 20260507052004 | 59 | 37 | 4.0 | 10.0 | 0.00 | 0.14 | 0.00 | 80 | 1014.6 |
| 20260507051003 | 59 | 47 | 6.0 | 10.0 | 0.00 | 0.14 | 0.00 | 80 | 1014.8 |
| 20260507050003 | 59 | 33 | 6.0 | 12.0 | 0.00 | 0.14 | 0.00 | 80 | 1014.8 |
| 20260507045003 | 59 | 43 | 6.0 | 13.0 | 0.00 | 0.14 | 0.14 | 79 | 1014.8 |
| 20260507043003 | 59 | 30 | 6.0 | 12.0 | 0.00 | 0.14 | 0.14 | 81 | 1014.8 |
| 20260507042003 | 59 | 35 | 4.0 | 6.0 | 0.00 | 0.14 | 0.14 | 85 | 1014.4 |
| 20260507040003 | 60 | 30 | 4.0 | 9.0 | 0.00 | 0.14 | 0.14 | 83 | 1014.4 |
| 20260507035003 | 60 | 33 | 4.0 | 9.0 | 0.00 | 0.14 | 0.14 | 83 | 1014.4 |
| 20260507034004 | 60 | 43 | 5.0 | 8.0 | 0.00 | 0.14 | 0.14 | 83 | 1014.4 |
| 20260507033004 | 60 | 36 | 3.0 | 8.0 | 0.00 | 0.14 | 0.14 | 84 | 1014.4 |
| 20260507032003 | 60 | 39 | 3.0 | 7.0 | 0.00 | 0.14 | 0.14 | 85 | 1014.4 |
| 20260507031004 | 60 | 38 | 5.0 | 8.0 | 0.00 | 0.14 | 0.14 | 85 | 1014.4 |
| 20260507030004 | 60 | 38 | 4.0 | 7.0 | 0.00 | 0.14 | 0.14 | 86 | 1014.4 |
| 20260507024003 | 60 | 51 | 2.0 | 7.0 | 0.00 | 0.14 | 0.14 | 85 | 1014.2 |
| 20260507023004 | 60 | 55 | 3.0 | 7.0 | 0.00 | 0.14 | 0.14 | 86 | 1013.0 |
| 20260507022004 | 60 | 41 | 3.0 | 7.0 | 0.00 | 0.14 | 0.14 | 86 | 1013.0 |
| 20260507021003 | 60 | 41 | 4.0 | 6.0 | 0.00 | 0.14 | 0.14 | 86 | 1013.0 |
| 20260507020003 | 60 | 24 | 4.0 | 7.0 | 0.00 | 0.14 | 0.14 | 87 | 1013.0 |
| 20260507015003 | 60 | 59 | 4.0 | 7.0 | 0.00 | 0.14 | 0.14 | 87 | 1013.0 |
| 20260507014004 | 60 | 34 | 3.0 | 6.0 | 0.00 | 0.14 | 0.14 | 87 | 1012.3 |
| 20260507013004 | 60 | 28 | 3.0 | 6.0 | 0.00 | 0.14 | 0.14 | 88 | 1012.3 |
| 20260507012004 | 60 | 24 | 4.0 | 8.0 | 0.00 | 0.14 | 0.14 | 87 | 1012.3 |
| 20260507010004 | 60 | 25 | 5.0 | 6.0 | 0.00 | 0.14 | 0.14 | 87 | 1012.1 |
| 20260507005004 | 60 | 29 | 1.0 | 5.0 | 0.00 | 0.14 | 0.14 | 87 | 1012.1 |